Theta_e
299 300 301 309 303 300 299 300 302 299 301 303 304 305 304 302 303 303 304 305 305 304 304 304 304 306 305 304 303 305 306 307 308 307 307 309 309 309 311 314 316 315 316 312
299 299 297 299 300 299 299 300 299 300 302 305 305 305 303 303 303 303 304 304 304 304 304 304 304 305 304 302 303 306 307 309 309 309 310 310 309 308 308 310 312 316 317 312
298 297 297 298 299 299 301 301 302 300 301 302 304 304 303 303 302 303 304 304 304 304 303 303 304 303 303 303 303 302 305 308 308 309 309 309 310 307 308 309 314 313 308 307
297 296 295 299 299 299 299 301 301 300 303 303 305 304 303 303 302 302 302 303 303 303 303 302 302 302 303 303 304 305 305 307 307 308 308 308 309 307 306 307 309 311 306 304
296 295 296 298 300 300 300 299 301 301 302 303 304 303 304 303 302 303 303 303 303 302 302 302 303 303 305 305 304 305 305 308 307 309 309 309 308 307 305 305 305 306 307 305
296 296 298 299 300 300 300 299 300 302 303 304 304 304 304 303 303 302 302 303 302 302 302 302 302 302 303 304 305 307 307 308 309 309 308 310 310 305 305 304 303 304 304 302
296 297 298 298 299 300 300 300 300 304 303 304 303 303 303 303 303 303 302 302 302 302 302 302 302 303 303 304 304 305 307 307 307 309 310 312 305 302 304 303 301 301 302 301
294 295 297 298 300 301 300 300 301 303 305 303 302 303 303 303 303 304 303 302 302 301 303 305 307 308 308 307 307 307 306 307 308 309 309 308 305 302 302 304 302 299 299 299
294 295 297 298 301 300 300 300 300 303 303 303 302 303 303 303 303 303 302 300 299 302 304 306 307 308 308 309 307 306 306 306 308 308 308 309 306 301 299 301 306 298 298 298
294 295 297 300 301 301 300 301 301 302 302 301 302 303 303 302 303 303 302 301 301 302 306 308 307 307 307 308 307 306 306 306 307 306 308 306 301 300 300 307 303 297 297 296
295 296 298 300 301 299 299 300 301 301 302 300 302 301 301 301 302 303 301 301 301 303 306 306 307 307 307 307 306 306 306 307 306 305 306 307 299 301 304 298 297 296 295 295
294 296 298 299 299 299 299 300 301 301 301 300 299 300 299 300 299 301 299 301 302 302 305 305 305 306 306 306 307 305 305 305 306 305 305 299 298 297 296 295 295 294 294 293
293 296 297 298 298 298 298 300 301 301 300 300 300 299 299 298 298 298 301 300 301 301 301 303 304 306 305 306 306 305 302 301 303 302 299 298 297 295 295 294 293 292 292 291
293 294 296 297 298 298 298 299 299 300 301 302 299 299 299 299 299 298 298 300 299 299 301 302 303 304 302 304 304 304 303 302 302 301 299 297 296 295 294 293 292 291 289 289
294 295 296 297 297 297 297 297 298 298 301 302 300 299 299 299 300 299 299 299 300 300 301 302 303 301 302 302 302 303 301 302 301 303 299 298 296 294 293 292 291 290 290 288
294 295 297 297 296 296 296 296 297 299 300 300 302 298 299 299 299 300 300 300 300 300 301 301 300 299 301 302 302 300 299 299 298 297 295 295 293 292 292 291 289 289 288 287
294 296 297 297 296 295 294 296 297 299 298 300 301 301 299 299 299 300 301 301 301 301 300 300 300 300 301 301 301 300 298 297 296 295 294 292 292 291 289 288 287 286 285 284
293 295 296 296 296 292 294 295 296 297 297 299 302 301 300 300 300 300 299 300 300 299 300 299 300 300 300 301 299 298 297 296 295 294 294 294 290 288 287 286 286 285 285 284
292 294 295 294 292 294 294 294 295 295 296 299 301 302 303 300 300 300 300 299 300 298 300 300 300 301 301 301 298 297 296 296 294 292 291 290 289 287 286 286 285 285 283 282
292 292 292 294 294 294 294 293 294 295 296 297 300 299 301 300 300 299 299 299 300 300 300 299 300 301 296 296 298 297 296 294 292 292 290 289 288 287 286 285 284 283 282 281
290 291 293 294 294 293 294 296 297 296 297 297 297 300 300 299 301 300 299 299 298 299 301 300 301 302 297 294 294 294 294 293 293 292 292 290 289 286 285 283 282 281 280 280
291 295 294 293 293 293 296 296 296 297 298 296 299 300 300 298 299 300 298 298 299 301 299 301 302 302 293 292 290 292 292 291 290 290 289 288 286 285 283 282 281 281 281 281
294 293 292 293 292 294 295 295 296 297 296 295 297 299 299 299 299 298 299 299 301 300 300 300 303 295 291 291 289 289 289 289 289 287 287 287 286 284 283 283 282 281 281 280
291 293 292 293 293 293 294 296 297 295 296 295 298 297 300 299 299 298 299 299 299 300 300 301 302 294 290 289 288 287 288 288 287 287 286 285 284 283 282 282 281 281 280 280
291 292 293 293 291 293 293 293 295 294 295 296 298 299 300 300 299 299 298 298 299 300 301 302 298 292 289 288 287 288 289 287 286 285 285 284 283 283 282 281 281 280 280 279
291 291 293 291 294 295 294 294 295 295 295 297 299 300 301 300 300 299 299 299 300 302 301 297 293 291 289 289 289 289 287 286 285 284 284 283 283 282 282 281 280 279 279 278
291 291 291 292 293 293 293 294 294 295 297 300 300 300 300 299 299 299 299 300 301 299 296 294 293 293 291 291 290 288 287 285 284 284 283 282 282 281 280 280 280 279 278 278
Wind_Speed
31 36 56 62 62 54 51 18 6 34 31 12 12 10 7 11 17 9 5 9 9 13 13 8 7 9 3 8 4 4 3 2 3 4 3 1 6 7 7 4 2 9 8 5
24 25 32 48 51 45 30 11 18 30 18 9 12 7 9 9 13 9 7 6 5 9 10 6 8 8 8 7 1 5 4 2 3 6 6 9 3 10 8 7 6 3 4 4
26 34 37 46 29 28 23 16 5 9 7 3 13 12 14 8 7 5 9 11 11 11 10 3 10 9 5 5 4 5 2 1 3 6 4 3 6 10 9 5 4 4 4 3
23 29 45 35 27 22 21 7 7 13 8 7 10 10 14 16 7 5 10 6 6 10 7 8 7 7 6 5 6 5 0 2 4 10 11 4 2 7 12 12 13 7 4 4
19 27 37 21 16 12 8 7 10 9 21 19 13 8 15 18 9 10 10 11 13 8 9 3 11 9 6 5 6 3 3 1 6 7 6 11 7 8 12 9 11 11 4 6
19 22 27 21 19 8 4 7 19 12 14 15 13 10 18 16 14 4 11 17 11 8 8 7 8 3 5 6 4 5 3 2 5 3 2 10 4 5 6 10 11 6 9 8
16 18 24 20 15 6 2 11 11 6 9 13 10 14 15 17 11 11 13 13 7 7 9 6 4 4 5 4 5 4 2 4 3 3 4 3 5 2 5 10 9 9 6 9
16 20 25 20 15 6 6 8 4 6 9 13 11 18 17 18 18 14 15 5 6 9 8 5 8 5 6 5 4 5 8 3 3 3 1 6 8 3 3 3 5 9 9 10
16 17 17 16 16 5 6 5 9 11 14 6 23 17 21 13 9 8 5 6 8 4 3 3 6 5 6 6 6 4 7 5 5 3 3 3 6 8 3 4 4 9 10 11
16 17 16 15 18 10 6 5 13 12 9 7 17 10 11 9 8 6 7 6 4 3 3 4 4 4 1 7 8 5 4 4 5 2 3 3 4 8 1 5 4 7 9 10
18 17 17 14 14 10 8 8 12 11 8 8 8 9 9 9 9 7 9 6 2 3 4 3 3 3 3 4 4 4 4 2 2 2 4 3 10 2 3 3 2 5 6 8
16 16 17 17 15 12 10 11 12 24 11 11 19 16 12 11 8 12 6 2 5 3 2 1 2 3 3 5 5 3 3 3 1 4 3 4 8 8 5 2 2 4 5 6
17 16 16 14 13 12 12 17 20 23 20 16 10 9 14 13 10 10 6 3 4 3 3 3 2 2 2 4 3 5 3 1 1 5 5 6 6 6 4 4 4 4 5 5
17 17 14 14 13 13 17 21 18 19 11 7 6 12 13 10 8 5 6 14 12 9 5 3 2 2 2 3 3 2 3 8 4 3 8 8 5 5 4 4 5 5 5 5
15 16 16 14 14 13 14 16 17 13 6 6 10 14 12 15 15 17 15 12 9 6 3 2 2 3 3 3 2 3 5 4 4 1 11 4 10 6 3 4 3 3 2 3
19 19 18 18 17 17 17 7 9 18 27 11 4 5 6 14 13 12 10 8 6 4 4 4 3 2 1 2 2 4 6 6 4 6 7 9 11 5 3 8 5 4 4 4
21 21 20 18 16 16 3 6 14 17 13 6 6 6 4 10 11 9 6 5 4 3 3 2 3 4 2 1 2 12 10 10 10 11 13 9 8 6 9 7 6 5 5 5
22 21 18 14 12 11 13 17 16 13 8 6 4 3 6 7 6 5 3 3 3 3 3 3 2 4 2 2 6 13 14 12 11 9 4 7 12 11 9 7 6 5 4 4
22 21 18 15 12 5 10 14 12 8 6 4 3 7 4 9 4 4 3 2 1 1 1 2 3 3 4 3 15 17 17 12 14 12 11 11 11 10 8 7 6 5 5 5
28 24 6 5 8 22 15 5 3 4 5 4 3 4 4 8 5 2 4 0 1 2 2 3 2 3 4 5 12 15 15 13 16 15 11 11 11 10 8 7 6 7 7 7
11 4 5 21 12 5 4 3 3 1 2 2 4 6 9 3 5 3 1 2 2 2 3 2 2 3 7 12 14 14 13 14 11 8 7 9 10 11 10 9 9 9 8 8
6 16 19 7 4 4 3 2 2 1 3 4 7 10 7 4 4 4 3 2 2 2 6 2 2 2 10 16 15 16 15 13 11 9 10 11 12 12 11 11 11 11 11 10
25 8 4 2 3 2 3 5 3 4 6 6 8 5 4 4 3 5 2 4 2 4 2 3 2 8 13 16 16 16 14 14 13 12 13 14 14 13 12 13 13 12 11 10
4 3 4 2 2 2 1 3 3 3 5 12 11 5 3 4 3 3 4 1 3 2 3 4 3 13 17 18 17 18 17 16 15 15 15 14 14 16 15 14 13 12 10 9
4 3 3 2 2 3 4 3 3 4 8 13 7 5 2 2 3 2 3 4 3 4 3 1 4 13 19 21 21 20 19 18 17 17 17 18 18 17 17 16 14 12 10 8
4 4 4 3 4 4 4 4 4 5 9 6 2 3 2 2 3 3 4 3 4 2 2 2 6 13 19 22 22 20 18 17 18 19 19 20 20 19 17 16 14 12 10 8
3 4 7 7 7 4 3 5 4 5 6 2 2 3 2 3 3 3 4 4 1 1 2 3 7 12 20 23 22 21 19 20 21 22 22 21 21 19 18 16 15 13 11 9
Wind_Direction
104 121 144 171 162 153 141 119 114 163 160 164 186 204 177 149 153 153 127 120 123 160 153 161 167 173 163 163 153 179 165 234 290 319 259 88 70 354 299 275 288 290 279 93
141 139 134 145 150 139 125 102 100 157 173 181 182 171 145 150 162 141 132 128 152 155 156 137 161 164 132 156 202 174 161 137 334 150 151 214 333 348 322 262 251 307 345 63
152 141 145 133 128 135 127 122 126 137 193 233 174 157 157 124 121 82 94 119 133 137 148 137 161 152 162 170 202 164 188 174 217 276 339 3 288 349 6 339 275 66 54 18
132 141 141 134 125 123 123 93 134 156 183 179 181 176 158 142 128 98 129 149 178 161 149 149 157 155 149 160 153 143 37 293 250 269 265 136 1 14 34 28 3 25 86 35
138 148 162 164 147 121 85 108 141 162 163 163 178 158 169 155 129 149 165 166 159 164 158 184 165 156 177 163 170 127 123 245 281 254 114 157 78 33 53 44 16 41 333 61
150 155 172 173 159 124 83 134 144 147 166 166 169 168 162 158 128 66 166 149 145 151 135 124 121 140 140 127 125 128 172 276 268 197 340 140 130 16 69 80 42 13 29 354
158 163 182 180 180 182 114 145 145 147 158 177 172 153 151 152 148 133 135 149 143 138 128 111 112 179 187 173 187 194 147 249 263 266 212 205 116 114 80 93 64 26 34 8
174 166 175 192 184 213 156 150 113 122 148 152 147 150 142 125 119 125 128 107 112 150 147 144 147 148 151 124 108 175 203 253 257 271 354 117 179 25 289 287 87 33 7 8
166 161 169 178 183 159 142 143 125 127 131 153 149 140 148 140 126 129 109 110 138 144 171 198 194 173 149 160 142 100 155 242 263 235 253 214 85 359 322 214 174 18 8 7
167 165 165 168 184 162 157 143 138 135 100 121 154 146 145 139 139 120 143 147 143 166 176 193 172 132 162 157 170 175 189 203 244 224 253 113 32 347 119 218 57 12 7 7
167 163 158 158 173 162 162 146 136 129 106 95 108 120 126 129 145 152 143 136 171 167 192 203 135 158 137 150 122 166 196 215 209 212 231 193 357 169 296 53 37 11 9 15
166 166 163 163 169 159 157 137 123 129 108 117 110 108 114 122 136 131 141 83 132 127 149 180 141 134 169 160 161 155 180 340 38 340 49 96 55 89 103 101 97 35 27 18
167 166 168 165 157 158 151 141 137 125 106 93 96 76 104 111 123 136 133 151 135 143 120 126 93 128 206 163 149 144 125 101 188 179 146 132 119 95 102 81 95 68 42 23
155 169 168 162 153 146 158 143 139 133 115 100 75 100 101 107 104 106 146 138 125 120 108 87 102 119 281 145 94 228 63 161 149 94 130 137 139 124 114 106 99 96 71 55
160 158 156 153 152 146 154 146 137 136 104 124 123 103 95 108 109 107 106 109 112 126 99 89 92 102 153 110 173 160 190 138 197 157 150 99 143 146 134 145 119 96 86 48
157 155 154 148 144 143 131 97 108 111 114 106 121 102 115 127 119 107 102 96 79 90 91 88 92 91 282 178 182 126 133 136 124 143 134 128 144 148 138 146 128 106 84 66
155 153 154 155 157 164 140 129 139 134 118 104 119 115 115 125 123 111 96 77 82 74 102 99 117 142 201 184 214 154 139 130 125 142 140 128 153 141 137 137 132 116 94 83
153 154 157 151 144 128 108 121 138 134 103 90 107 102 135 149 142 118 98 113 100 52 80 118 171 155 220 234 146 158 152 143 141 152 156 143 148 140 138 140 136 124 110 98
147 146 136 124 126 85 122 110 102 91 89 100 105 155 139 152 112 106 105 33 111 66 161 147 215 170 220 195 168 170 168 167 158 139 132 136 143 146 146 144 140 134 118 106
136 131 109 93 114 114 109 68 53 48 42 55 91 132 121 151 133 98 129 80 131 160 166 150 225 247 134 154 175 175 174 163 153 146 156 162 159 158 152 147 139 136 130 120
139 104 93 133 118 72 65 73 62 73 96 71 106 141 137 115 154 125 164 155 138 190 138 230 215 247 172 166 153 160 163 164 169 179 177 177 176 165 156 147 140 136 134 131
141 126 124 105 73 72 92 81 122 192 127 125 148 128 121 116 116 118 159 146 197 183 137 235 238 143 156 167 164 170 173 173 174 175 168 159 158 158 157 153 148 147 144 138
118 105 82 71 27 103 176 157 154 150 158 156 148 120 114 119 101 92 154 189 165 135 195 237 258 142 162 168 165 165 171 174 175 169 170 171 171 169 167 161 153 148 144 137
95 92 94 7 115 97 101 81 100 108 131 146 142 116 132 128 108 137 155 84 179 192 231 235 178 179 171 172 170 171 175 181 181 179 177 174 171 166 160 160 155 152 151 149
79 61 76 80 88 91 78 72 94 83 141 145 126 106 117 105 121 169 127 170 210 228 235 197 150 171 171 172 175 181 185 184 183 180 175 171 169 167 163 162 163 161 162 157
63 67 100 96 125 95 84 91 100 100 150 141 110 116 121 115 137 160 201 189 221 212 204 156 168 174 177 179 182 184 185 185 181 177 174 173 171 170 169 168 167 168 168 165
66 85 88 100 85 85 76 90 112 133 153 161 176 148 105 129 185 207 191 220 249 189 185 199 198 191 184 183 184 185 187 185 182 179 176 174 175 176 176 175 175 175 175 174